Theta_e
337 335 334 332 329 328 326 323 321 319 318 317 316 315 315 314 313 313 312 312 316 318 317 317 317 317 318 318 322 324 325 325
334 333 332 329 326 322 319 318 317 317 316 316 315 314 313 314 314 312 312 313 314 316 316 316 317 317 317 318 320 320 322 323
332 333 330 328 325 320 318 317 316 315 315 314 318 320 319 319 313 312 312 313 314 314 315 316 316 316 316 318 319 320 320 321
332 331 330 330 327 327 325 321 322 320 319 319 318 317 316 315 312 312 312 313 313 314 315 317 318 317 317 318 318 318 319 319
330 331 331 330 327 326 324 322 321 319 318 317 316 315 315 314 313 313 314 316 315 316 317 317 317 317 317 316 316 315 315 315
329 328 329 328 326 325 323 322 320 318 316 316 316 314 314 313 312 312 312 314 316 316 316 317 316 316 316 315 314 313 312 311
327 327 327 326 324 323 322 320 318 317 315 313 313 312 312 311 311 310 310 311 313 315 316 315 315 315 314 313 312 312 311 311
325 326 325 324 323 322 320 318 317 316 314 313 310 310 309 309 308 307 307 308 311 313 314 314 313 313 312 310 310 309 308 309
325 324 322 322 321 320 318 317 316 315 313 311 307 307 307 306 306 305 305 307 310 313 314 313 311 310 309 308 307 306 306 306
323 322 321 321 320 318 317 316 315 313 311 309 306 304 304 304 304 303 303 304 307 310 312 311 309 308 307 306 305 304 303 303
322 321 322 320 319 318 317 315 313 312 310 307 305 302 301 303 302 302 303 304 306 308 310 309 308 307 305 304 303 302 301 301
322 322 321 319 318 317 315 314 312 311 308 306 304 302 301 301 302 302 303 304 305 306 308 308 306 304 302 302 301 300 300 300
323 323 320 318 318 316 315 314 311 309 307 306 304 302 300 301 301 302 303 304 305 306 306 305 303 303 302 301 300 299 299 298
323 323 320 319 318 316 314 313 311 309 307 305 303 302 300 301 301 301 302 304 305 305 304 304 303 303 305 304 305 301 298 297
324 323 321 319 317 315 314 312 309 308 306 305 303 301 300 300 300 300 302 303 304 304 304 304 303 302 304 306 307 307 302 298
324 323 321 319 317 315 314 312 310 309 307 305 302 301 300 299 299 300 300 301 302 303 303 303 303 303 301 301 302 302 303 302
323 323 321 319 317 316 315 313 312 311 308 305 303 301 300 299 299 300 300 299 300 300 301 302 301 301 300 299 298 298 299 298
325 324 322 319 317 316 316 315 313 311 308 306 304 303 301 300 300 300 299 299 299 299 299 299 298 298 298 298 298 298 298 298
324 325 322 319 318 317 317 316 315 312 310 308 306 304 303 302 300 300 300 299 299 298 298 298 298 297 297 297 296 296 296 296
325 323 322 320 318 317 317 316 316 314 311 310 308 307 305 304 302 301 300 299 298 298 298 297 297 298 297 296 296 295 295 295
Wind_Speed
15 13 11 11 12 12 13 14 13 13 14 14 15 15 15 14 14 13 14 14 14 15 17 18 18 18 19 19 21 19 15 16
14 13 12 13 13 15 15 14 13 12 13 12 11 14 15 15 13 14 14 14 15 15 16 17 18 18 19 20 19 16 14 17
13 12 13 14 14 15 13 12 11 11 11 12 11 9 11 11 13 13 13 13 14 14 16 17 18 18 18 19 16 15 16 17
12 12 13 12 11 10 10 9 8 8 9 8 8 8 9 10 12 11 12 12 13 14 15 16 11 11 13 16 16 17 18 18
13 11 11 10 9 8 8 8 9 9 8 8 8 8 7 6 7 7 8 12 10 10 8 8 10 11 13 15 15 15 16 17
13 12 10 9 8 7 8 9 8 9 9 8 7 5 6 6 6 6 7 7 9 8 9 11 13 14 14 14 14 14 14 15
13 14 11 9 8 9 10 10 9 9 9 9 6 5 6 6 6 6 7 8 9 10 12 12 13 13 13 14 14 15 14 14
15 15 11 10 9 10 10 11 10 8 7 7 8 7 7 6 7 6 7 7 9 10 11 12 11 12 13 13 13 12 13 12
17 15 13 12 11 11 11 10 10 8 8 8 8 7 7 7 7 6 7 8 9 11 12 12 12 12 13 12 12 11 11 11
18 16 14 14 13 12 11 11 10 9 9 7 8 9 9 7 6 6 6 7 9 10 11 12 12 11 11 11 10 10 10 10
18 17 17 16 15 13 12 12 10 9 9 8 7 8 9 9 7 5 5 7 9 11 11 12 12 12 12 10 9 8 8 8
20 18 19 18 16 15 13 11 10 10 9 9 9 7 8 9 8 7 7 7 9 11 13 12 12 13 12 10 8 7 6 6
22 23 23 22 19 19 16 15 13 11 9 10 9 8 8 8 7 7 7 8 9 12 14 14 13 13 12 10 7 6 5 4
26 26 26 24 21 19 16 15 13 12 11 10 9 10 9 7 7 7 8 10 12 13 14 13 12 10 4 6 5 4 2 1
29 28 27 26 23 20 16 16 13 13 13 12 11 11 10 9 8 8 9 10 11 13 12 11 9 9 7 4 3 2 7 4
26 27 28 27 26 24 23 21 18 15 16 14 13 12 11 11 10 9 10 10 10 10 11 10 8 10 8 8 6 3 4 4
40 39 32 31 30 26 25 21 19 16 16 16 14 13 13 12 12 11 10 9 10 11 11 11 11 9 9 7 6 6 7 7
29 33 34 32 32 30 28 25 22 20 19 19 17 15 15 15 14 13 11 11 11 11 10 10 9 9 9 8 7 6 6 7
32 35 35 36 34 33 30 27 25 23 23 21 20 19 18 17 16 14 13 13 13 12 11 10 10 10 10 8 6 5 5 5
39 37 37 37 36 35 32 29 26 23 24 22 21 20 18 17 17 15 14 14 12 11 10 11 10 10 10 9 8 7 6 5
Wind_Direction
124 133 153 145 136 134 126 123 120 116 116 113 112 107 100 98 94 90 91 93 100 101 101 103 101 97 93 87 85 79 74 68
142 133 132 126 124 129 124 121 119 118 117 112 104 103 102 96 88 98 95 97 103 108 110 108 105 102 96 86 80 77 75 72
148 143 144 136 130 129 123 120 116 110 112 115 94 99 98 98 113 109 105 105 108 111 111 107 104 102 95 88 82 80 77 75
157 154 152 148 145 139 133 123 125 118 113 111 102 102 107 103 104 110 112 109 112 114 110 95 92 88 78 76 80 82 80 77
167 158 158 157 153 149 144 139 132 121 109 104 105 107 107 110 102 102 109 109 111 110 93 94 92 86 83 81 81 79 81 78
168 168 162 158 160 155 152 145 141 131 124 112 110 108 108 116 123 121 119 124 125 116 107 103 98 97 94 90 85 86 87 82
174 175 168 166 160 162 154 146 146 144 133 132 120 119 119 123 123 130 126 124 129 127 120 115 109 106 100 96 89 88 87 85
178 179 169 168 171 160 154 148 145 142 133 133 136 131 129 130 128 129 126 127 129 135 135 128 122 116 107 101 93 89 86 86
177 179 170 170 169 161 159 152 145 151 145 134 134 125 130 132 132 125 123 131 130 135 138 135 126 118 112 104 98 93 88 84
176 177 175 174 174 170 164 155 156 158 148 140 139 135 133 127 130 130 138 138 144 146 146 139 132 127 119 110 104 96 90 82
176 176 177 175 175 169 166 162 159 158 148 143 142 141 137 134 134 132 129 143 149 149 150 146 139 134 122 114 109 101 90 81
175 179 179 176 175 170 168 165 163 159 158 156 147 149 138 132 137 133 132 143 147 148 145 143 144 136 126 116 102 90 84 80
181 183 182 178 180 178 177 177 172 166 164 157 152 153 147 140 142 134 136 139 145 142 138 140 143 142 128 118 107 107 98 91
188 189 187 185 183 186 183 179 179 174 166 166 161 158 157 152 151 147 142 138 140 148 148 148 149 163 179 167 167 165 151 125
191 193 192 188 184 182 181 177 177 176 174 172 173 168 165 162 159 157 146 149 162 166 165 165 162 177 195 256 189 221 155 177
198 197 195 192 187 187 186 185 184 190 179 177 175 173 170 167 164 167 162 164 168 172 180 183 182 191 200 227 241 259 229 177
194 194 196 194 193 193 192 194 193 185 179 176 177 176 178 174 172 175 170 164 170 182 189 190 206 216 216 202 204 204 219 253
205 194 196 196 196 197 196 196 191 184 182 180 184 183 185 182 183 178 177 176 176 179 185 187 193 203 210 212 217 216 205 217
195 200 198 196 199 200 199 200 196 192 188 188 185 186 191 192 185 182 183 181 183 183 183 185 187 189 191 198 208 213 214 222
197 197 202 198 200 202 201 203 201 200 197 197 195 196 193 191 187 186 189 188 186 188 193 186 194 197 192 189 185 192 197 215